COSMOS 2151 (21422 NORAD) Tracking and Keplerian Element Data

This shows tracking and keplerian element data for the satellite.

Feedback or suggestion? Click here.




ElementValue
Catalog21422
NameCOSMOS 2151
Epoch Orbit85127
Epoch Day354.16276397
Epoch Year2025
RAAN160.3496
Inclination82.4962
Eccentricity0.0011948
Argument of Perigee334.0939
Mean Anonmoly25.9685
Mean Motion14.99712131
Decay Rate1.406E-05
L11 21422U 91042A 25354.16276397 .00001406 00000+0 11167-3 0 9996
L22 21422 82.4962 160.3496 0011948 334.0939 25.9685 14.99712131851273



Live tracking and technical data element details for COSMOS 2151 (NORAD 21422). COSMOS 2151 can be tracked NOW for your location showing map with azimuth and elevation plus other details from your city location.







IsCatalogInMostPopularTable: catalog: 21422, numindb: 583
Update: records affected: 1



GetName: 21422 COSMOS 2151

Hit Count: updated at: Sat, 07 Mar 2026 03:20:02 GMT